Location: Piolenc
(44.1794°N, 4.7641°E)
Time: 04:23:16
(UTC+00:00)

Cosmos 1603 - Pass Details

Date: 27 January 2021
Orbit: 829 x 861 km, 71.0° (Epoch: 27 February)

Event Time Altitude Azimuth Distance (km) Brightness Sun altitude
Rises 06:12:38 0° 202° (SSW) 3,360 6.8 -9.4°
Reaches altitude 10° 06:15:02 10° 202° (SSW) 2,433 6.1 -9.0°
Maximum altitude 06:20:38 86° 113° (ESE) 844 3.8 -8.1°
Drops below altitude 10° 06:26:18 10° 26° (NNE) 2,467 6.2 -7.1°
Sets 06:28:45 0° 26° (NNE) 3,410 7.0 -6.7°
